Weather in Solvychegodsk

Russia / Arkhangel'skaya Oblast'     61°19′50″N   46°55′41″E
temp.,
°C
wind,
m/s
gust,
m/s
humid.,
%
clouds,
%
prec.,
mm/h
press.,
hPa
HPBL,
m
13 april, tue
tue1300:00+6ssw4139289 0.0 1035372
03:00+6s31193100 0.0 1033277
06:00+5s4129293 0.0 1032366
09:00+6s51389100 0.0 1029532
12:00+8ssw51289100 0.0 1028658
15:00+10ssw41288100 0.0 1026619
18:00+10ssw41189100 0.0 1025596
21:00+8ssw41294100 0.0 1025405
14 april, wed
wed1400:00+7ssw3119689 0.0 1024324
03:00+7ssw3119491 0.0 1023281
06:00+7ssw3119156 0.0 1022299
09:00+12ssw4107052 0.0 1021426
12:00+17ssw511535 0.0 1020931
15:00+18ssw6145390 0.0 10181473
18:00+15ssw6145997 0.0 1018843
21:00+12ssw51570100 0.0 1018636
15 april, thu
thu1500:00+10sw4147789 0.0 1017549
03:00+7nnw4887100 0.0 1020625
06:00+4n2787100 0.8 1021496
09:00+6nnw2474100 0.8 1023749
12:00+8nnw4547100 0.0 10231429
15:00+8n4539100 0.0 10241457
18:00+6n364799 0.0 1025770
21:00
16 april, fri
fri1600:000n22710 0.0 102714
03:00−1nne11754 0.0 102815
06:00+1n126812 0.0 1028123
09:00+5n12455 0.0 1028812
12:00+8nnw23355 0.0 10281488
15:00+8nw34325 0.0 10281842
18:00+7nw36466 0.0 1027422
21:00+4n410635 0.1 1029580
17 april, sat
sat1700:00+1nnw279715 0.0 1029212
03:00−1nnw26946 0.0 1030148
06:000nnw268031 0.0 1031265
09:00+4nnw355144 0.0 10301445
12:00+5nnw3446100 0.0 10301626
15:00+6nnw3455100 0.2 10291363
18:00+4nnw3673100 0.6 1029994
21:000nnw23906 0.6 102954